Wetbulb
62.44 61.96 61.49 61.03 60.15 58.86 57.75 57.24 56.58 55.11 54.02 53.59 52.88 51.95 51.06 50.60 50.68 51.61 52.43 52.87 53.32 53.57 53.76 54.94 56.23 56.95 48.86 41.78 40.44 47.52 54.50 52.24 49.39 48.65 46.91 46.09 44.05 42.11 37.81 38.01 38.99 35.36 36.71 38.93 38.83 39.12 37.85
62.53 62.02 61.37 60.91 60.22 59.35 58.30 57.65 56.76 55.43 54.11 53.89 53.24 52.05 50.93 50.09 50.21 51.07 51.79 52.63 53.10 53.56 53.93 55.06 56.04 54.79 44.25 38.49 46.56 47.48 47.35 47.68 46.68 46.45 44.53 44.98 43.47 42.91 38.73 37.03 36.41 36.20 36.84 36.63 37.63 37.47 37.98
62.43 62.08 61.50 60.83 60.11 59.21 58.35 57.89 57.11 55.99 54.42 54.15 53.68 52.20 50.96 49.83 50.04 50.59 51.31 52.20 52.75 53.38 53.96 55.33 55.75 47.98 42.42 40.16 45.99 46.84 47.30 45.48 46.11 45.99 43.51 45.00 44.01 41.45 39.30 35.76 38.59 36.61 33.18 34.45 34.59 36.64 35.29
62.39 62.11 61.56 60.92 60.08 59.06 58.31 57.66 57.24 56.43 55.19 53.88 54.07 52.25 51.02 49.95 49.65 50.16 50.83 51.99 52.63 53.19 54.01 55.03 55.30 43.40 37.54 46.27 44.01 46.35 46.96 45.88 46.18 46.33 44.61 44.80 45.21 41.18 38.55 38.34 36.93 33.19 31.61 26.09 33.61 35.89 35.39
62.23 61.91 61.40 60.86 60.15 59.13 58.36 57.63 56.97 56.34 55.17 53.92 53.89 52.53 51.19 50.24 49.47 49.63 50.65 51.70 52.56 53.28 53.96 53.99 43.63 41.13 36.82 48.42 44.36 45.96 45.79 43.84 44.82 44.66 43.45 46.56 43.05 37.83 38.02 31.95 28.48 28.76 23.98 26.16 29.25 35.27 33.97
61.97 61.69 61.18 60.76 60.17 59.22 58.32 57.53 56.91 56.19 55.35 54.21 53.18 52.38 51.41 50.43 49.56 49.50 50.62 51.82 52.35 51.12 50.83 47.86 43.54 37.10 39.02 38.52 42.43 44.27 44.78 45.45 42.62 42.28 42.77 41.08 37.32 32.76 32.27 28.70 23.69 25.06 25.65 27.12 25.99 31.39 31.80
61.41 61.43 60.99 60.58 60.07 59.19 58.26 57.43 56.84 56.36 55.44 54.11 53.15 52.38 51.62 50.71 49.44 49.15 47.94 45.14 39.97 39.30 41.24 37.58 38.33 38.42 39.65 41.66 43.47 42.57 44.10 43.27 42.02 39.19 33.04 35.80 30.88 27.00 31.15 31.86 32.14 31.31 28.54 26.62 27.88 32.23 30.42
56.40 59.92 60.82 60.43 59.90 59.13 58.26 57.51 56.92 56.83 55.66 54.10 53.77 52.64 51.79 50.67 49.35 48.87 45.12 41.43 40.37 42.86 34.96 41.16 41.25 40.77 42.41 42.44 38.15 41.25 44.75 37.76 37.26 32.04 34.08 31.53 29.06 33.15 35.75 34.82 32.24 30.36 27.48 24.97 28.32 31.70 29.68
53.32 55.31 59.41 60.14 59.69 59.04 58.23 57.46 56.93 56.70 55.60 54.34 53.93 53.05 51.96 50.47 48.81 44.76 42.23 42.82 45.44 43.36 37.30 38.18 40.95 40.04 39.95 42.06 37.73 38.23 41.16 38.14 35.18 32.62 31.80 29.23 31.90 35.61 34.78 31.58 31.36 27.63 27.37 25.68 26.76 28.11 29.03
51.94 52.20 53.93 59.59 59.25 58.67 57.97 57.24 56.55 56.01 55.16 54.29 53.95 53.10 51.90 50.08 41.50 42.29 40.07 45.42 45.52 42.60 32.54 35.75 35.28 38.81 41.04 40.87 35.53 41.53 41.33 37.88 34.90 31.84 32.51 31.55 34.41 33.08 31.15 30.65 30.93 26.09 31.39 30.44 27.97 24.31 20.35
50.94 51.41 51.73 52.50 54.20 58.14 57.50 56.84 56.17 55.54 54.69 54.07 53.62 52.92 51.73 48.42 40.30 40.02 43.69 45.54 44.08 43.84 16.85 35.76 34.96 43.20 40.39 36.55 36.25 36.53 40.60 37.72 32.81 32.40 31.50 28.37 29.63 28.60 29.70 30.30 33.03 28.49 31.75 29.91 27.42 24.02 22.16
48.62 50.50 50.78 51.28 51.89 53.42 57.46 56.82 56.09 55.38 54.60 53.91 53.37 52.59 51.62 46.88 43.54 43.23 45.33 43.70 43.35 27.78 17.99 28.23 34.76 34.02 33.71 35.12 35.28 36.92 36.59 38.46 37.52 33.48 32.02 29.54 33.42 32.03 30.67 32.78 32.63 33.29 29.41 28.57 26.33 23.30 10.56
47.93 48.42 49.69 50.03 50.73 51.45 54.02 56.90 56.19 55.38 54.66 53.86 53.05 52.12 49.33 46.23 39.36 44.06 43.78 40.01 23.30 17.85 31.99 26.17 28.73 32.49 31.52 30.47 32.11 32.88 31.30 29.29 27.34 23.55 23.61 27.22 27.73 31.45 33.54 28.57 31.78 29.78 25.02 11.02 11.63 8.11 12.79
46.62 47.55 47.78 48.65 49.97 50.69 51.24 56.51 56.12 55.40 54.59 53.69 52.78 51.65 48.98 44.18 43.62 44.93 41.18 32.14 13.46 20.83 26.57 32.31 32.04 31.12 28.51 30.87 29.89 30.97 28.46 25.22 29.72 28.60 23.19 21.80 20.24 28.34 32.43 29.25 26.68 25.91 25.35 16.80 10.01 12.97 17.70
47.23 46.45 47.21 47.22 47.56 50.31 50.70 51.15 51.83 55.03 54.24 53.37 52.35 48.10 45.58 42.70 43.54 44.21 35.33 20.55 24.00 27.51 31.17 29.90 29.91 24.59 25.38 29.42 29.15 27.85 26.70 25.67 29.07 30.55 26.92 22.50 22.31 28.11 30.35 31.16 29.53 26.41 20.77 25.68 13.29 7.38 11.42
46.81 47.04 46.52 47.23 46.99 47.26 48.76 50.54 53.48 54.77 53.79 52.85 47.51 44.44 43.76 44.95 43.66 40.76 29.56 26.06 25.76 37.04 34.14 32.09 28.13 26.13 21.09 24.05 26.47 25.85 25.93 29.93 30.56 32.55 31.73 28.82 20.44 26.31 27.49 30.04 29.06 25.71 27.65 19.11 15.13 9.14 7.04
47.65 46.96 47.00 46.49 47.66 46.76 48.06 49.47 49.89 50.48 53.54 52.11 45.42 39.55 44.10 44.33 43.03 34.92 24.62 23.27 29.41 37.31 36.61 32.67 28.99 25.21 26.58 24.29 26.32 25.17 25.81 29.27 32.58 30.57 32.66 30.45 25.13 22.94 25.99 24.18 23.44 22.96 20.17 21.43 22.04 21.57 13.73
49.15 48.28 48.18 47.25 47.67 47.46 46.45 47.60 50.35 50.42 53.11 50.15 42.29 34.07 43.23 42.97 29.70 30.15 24.56 27.32 36.25 35.36 36.40 35.04 33.98 31.41 28.15 26.74 25.51 25.21 27.03 28.92 33.42 31.68 27.74 29.11 24.16 17.54 21.40 24.60 26.05 25.31 24.08 23.00 15.80 15.55 16.91
49.32 49.02 48.36 48.26 47.35 47.47 47.01 45.94 47.16 50.29 52.65 48.04 39.82 31.76 41.40 40.08 29.22 26.62 25.94 28.61 31.92 32.57 32.58 32.78 32.59 33.91 32.18 25.76 24.46 26.44 28.25 29.95 32.17 30.66 28.20 29.34 19.62 10.68 19.08 21.97 22.48 23.27 24.19 24.64 16.88 16.38 14.02
49.18 49.18 48.93 48.28 47.49 47.20 47.47 46.45 45.66 48.70 51.08 46.62 34.60 25.97 29.97 31.33 32.86 31.76 28.26 25.78 27.45 33.05 33.27 33.50 31.97 32.36 29.41 25.81 28.26 26.03 26.65 27.98 29.89 30.59 35.82 34.09 22.20 19.96 22.10 24.86 22.16 20.66 22.72 25.10 19.31 9.86 12.97
48.66 49.04 48.76 48.69 48.35 47.54 47.66 47.01 46.03 47.10 48.68 46.19 34.71 28.34 30.93 25.06 29.10 31.34 32.11 27.60 27.40 26.02 31.89 33.65 29.00 30.12 29.30 24.91 24.82 24.83 25.20 26.91 29.90 32.57 26.86 25.76 19.27 17.75 17.20 22.00 21.99 23.32 22.88 23.94 21.71 25.04 19.75
48.06 48.34 48.33 48.36 48.26 48.00 47.56 47.78 46.62 46.05 47.62 44.14 31.45 29.14 30.68 30.05 31.56 30.14 31.34 28.98 27.86 28.90 30.56 28.86 30.19 29.61 30.47 27.85 31.04 26.28 25.76 26.76 28.34 26.33 23.19 24.03 17.02 19.43 15.78 21.41 21.14 19.88 24.07 22.98 24.93 23.25 23.35
47.25 47.84 47.92 48.19 48.13 47.91 47.56 47.73 47.16 46.20 44.86 33.98 33.98 36.52 33.81 32.94 30.23 29.07 29.74 31.90 30.12 31.54 31.12 34.98 33.59 32.15 30.86 32.44 32.27 33.80 32.56 31.40 30.71 26.70 21.22 20.67 18.67 14.22 12.98 18.97 15.24 13.27 20.84 23.97 22.25 20.87 24.50
46.96 47.18 47.35 47.67 47.76 47.80 47.54 47.33 47.66 46.71 44.47 39.20 34.32 34.01 31.76 30.68 30.51 29.61 32.23 32.15 32.06 31.23 30.88 32.37 34.73 33.46 32.02 36.54 36.63 34.14 31.23 29.21 27.57 24.95 25.88 19.07 18.98 16.78 12.88 12.72 14.77 26.53 23.93 28.85 26.90 28.67 27.86
46.44 46.66 46.90 47.14 47.46 47.50 47.40 47.13 47.14 46.94 45.71 40.22 39.95 34.80 31.81 29.10 32.09 31.60 31.46 32.75 33.27 32.56 31.70 31.40 31.14 35.05 37.88 34.96 31.08 29.84 27.57 28.05 21.05 21.34 19.68 20.45 23.44 17.46 15.54 13.03 24.61 24.77 22.62 23.18 22.30 27.13 30.75
45.87 45.97 46.09 46.24 46.71 47.14 47.09 46.92 46.72 46.81 45.78 40.05 38.94 38.38 32.65 30.23 30.16 34.10 32.19 32.19 31.15 31.58 29.33 28.24 31.61 37.26 35.71 32.55 31.39 28.07 25.94 28.97 21.48 16.54 21.75 24.07 21.02 23.81 13.94 16.80 16.04 24.59 23.60 25.49 27.67 23.33 31.89
45.41 45.51 45.64 45.82 46.09 46.61 46.81 46.83 46.36 46.53 46.30 41.42 38.96 38.94 33.98 29.62 30.40 34.34 32.10 31.57 34.02 33.39 31.33 28.36 29.61 30.75 32.33 32.60 29.52 28.66 28.69 28.88 23.28 20.17 16.50 16.89 16.93 21.78 22.06 23.82 22.45 28.19 24.85 26.50 22.24 29.48 27.85
44.83 44.68 44.75 45.06 45.14 45.36 46.44 46.63 46.43 46.21 46.03 41.73 37.86 40.24 35.73 30.80 28.82 33.96 35.71 33.98 33.23 34.51 30.68 29.42 30.48 29.98 31.66 29.85 29.52 30.10 29.20 27.71 21.83 21.73 20.21 20.12 20.11 20.63 21.84 23.14 23.09 25.64 24.33 28.23 31.35 25.67 27.63
44.01 43.73 44.29 44.47 44.58 44.82 45.59 46.32 46.28 45.99 45.83 43.73 35.50 39.73 39.41 32.73 31.36 32.83 33.29 38.01 40.08 38.79 35.26 32.27 31.47 32.19 32.97 31.37 31.15 32.17 29.14 27.30 30.95 25.22 24.69 24.48 26.95 25.21 28.59 28.87 25.98 28.79 30.19 30.05 25.87 26.77 26.07
MSLP
1013.90 1014.27 1014.82 1015.43 1015.66 1016.36 1016.85 1017.26 1017.62 1018.08 1018.46 1018.59 1018.83 1019.05 1019.28 1019.54 1019.64 1019.64 1019.41 1019.28 1019.15 1018.93 1018.60 1018.58 1018.17 1018.09 1017.78 1017.81 1018.50 1017.90 1017.49 1017.03 1016.33 1016.07 1016.12 1015.92 1016.15 1016.77 1018.00 1018.92 1019.42 1020.31 1020.90 1021.09 1021.44 1021.83 1022.94
1013.03 1013.65 1014.17 1014.75 1014.95 1015.69 1016.36 1016.73 1017.20 1017.55 1018.07 1018.37 1018.67 1018.97 1019.19 1019.43 1019.53 1019.56 1019.42 1019.23 1019.01 1018.81 1018.66 1018.48 1018.16 1018.13 1018.08 1018.34 1018.49 1017.95 1017.76 1017.27 1016.86 1016.51 1016.61 1016.33 1016.66 1017.20 1018.51 1019.49 1020.21 1021.11 1021.56 1022.18 1022.53 1022.94 1023.62
1012.28 1012.66 1013.46 1013.92 1014.52 1014.85 1015.77 1016.21 1016.69 1017.10 1017.64 1018.12 1018.45 1018.84 1018.98 1019.13 1019.32 1019.39 1019.30 1019.15 1018.87 1018.70 1018.60 1018.42 1018.15 1018.05 1018.11 1018.65 1018.45 1018.01 1017.77 1017.50 1017.28 1016.88 1017.17 1017.03 1016.98 1017.43 1019.05 1020.37 1020.92 1021.79 1022.68 1023.13 1023.50 1023.53 1024.34
1011.28 1011.87 1012.53 1013.04 1013.72 1014.16 1014.91 1015.73 1016.15 1016.70 1017.15 1017.70 1018.17 1018.54 1018.83 1018.97 1019.10 1019.24 1019.12 1019.12 1018.88 1018.60 1018.47 1018.25 1018.18 1018.01 1018.31 1018.44 1018.46 1018.21 1018.01 1017.68 1017.53 1017.15 1017.27 1017.33 1017.36 1018.29 1019.62 1020.91 1021.68 1022.57 1023.20 1023.98 1023.90 1023.91 1024.40
1010.23 1010.89 1011.49 1012.16 1012.79 1013.41 1013.96 1014.94 1015.62 1016.13 1016.64 1017.25 1017.74 1018.19 1018.63 1018.84 1018.98 1018.95 1019.08 1018.86 1018.74 1018.47 1018.24 1018.02 1018.10 1018.02 1018.49 1018.34 1018.50 1018.43 1018.33 1018.19 1018.02 1017.63 1017.48 1017.51 1018.05 1019.81 1020.57 1021.49 1022.58 1023.07 1023.49 1023.93 1024.21 1024.00 1024.46
1009.15 1009.88 1010.44 1011.15 1011.82 1012.48 1013.19 1013.97 1014.90 1015.51 1016.21 1016.64 1017.39 1017.68 1018.21 1018.68 1018.93 1018.89 1018.86 1018.71 1018.35 1018.29 1018.07 1018.12 1017.89 1018.48 1018.91 1018.74 1018.80 1018.63 1018.29 1018.27 1018.23 1018.08 1018.04 1018.17 1019.11 1020.56 1021.28 1021.63 1022.36 1022.78 1023.46 1023.69 1023.93 1024.10 1024.62
1008.58 1008.69 1009.30 1009.88 1010.80 1011.56 1012.36 1013.16 1014.13 1015.06 1015.50 1016.30 1016.85 1017.51 1017.78 1018.34 1018.64 1018.82 1018.88 1018.70 1018.72 1018.86 1018.56 1018.58 1018.53 1018.40 1018.76 1018.98 1018.93 1018.78 1018.63 1018.44 1018.19 1018.27 1018.51 1019.01 1019.95 1020.65 1020.62 1021.15 1021.18 1021.67 1022.42 1023.23 1023.86 1024.01 1024.56
1008.93 1008.32 1008.17 1008.96 1009.63 1010.55 1011.47 1012.41 1013.44 1014.40 1014.98 1015.67 1016.61 1017.12 1017.77 1018.19 1018.42 1018.58 1018.91 1018.77 1017.66 1017.37 1018.42 1018.85 1018.83 1018.84 1018.82 1019.09 1019.03 1018.89 1018.78 1018.84 1018.62 1018.93 1019.05 1019.83 1020.28 1020.48 1020.48 1020.85 1021.13 1021.62 1022.73 1023.72 1024.28 1024.18 1024.64
1009.31 1008.84 1007.86 1007.71 1008.55 1009.45 1010.37 1011.57 1012.62 1013.71 1014.50 1015.29 1016.03 1016.78 1017.54 1017.99 1018.46 1018.67 1018.47 1017.89 1017.48 1017.46 1017.93 1018.76 1018.74 1018.86 1018.86 1019.16 1019.30 1019.29 1019.15 1018.70 1018.95 1019.36 1019.64 1020.18 1020.77 1020.67 1020.77 1021.08 1021.52 1022.41 1022.92 1023.79 1024.31 1024.79 1024.88
1009.32 1008.99 1008.45 1007.37 1007.54 1008.15 1009.32 1010.41 1011.79 1012.79 1013.70 1014.81 1015.46 1016.38 1017.12 1017.83 1019.00 1018.07 1017.87 1017.02 1017.23 1017.67 1018.70 1018.72 1018.89 1018.57 1018.81 1018.88 1019.49 1019.53 1019.37 1019.17 1019.30 1019.93 1020.50 1021.08 1021.16 1021.17 1021.19 1021.58 1021.90 1022.79 1023.11 1023.85 1024.70 1025.49 1025.90
1009.44 1009.18 1008.98 1008.75 1008.05 1008.02 1008.30 1009.33 1010.65 1011.76 1012.79 1014.01 1015.05 1015.84 1016.58 1017.46 1017.54 1017.53 1016.55 1016.59 1017.10 1017.90 1019.28 1018.54 1019.00 1019.10 1018.91 1019.14 1019.60 1019.66 1019.68 1019.29 1019.77 1020.53 1020.99 1021.81 1021.85 1021.84 1022.09 1022.48 1022.56 1023.33 1023.72 1024.57 1025.62 1026.36 1026.67
1009.65 1009.14 1009.11 1008.72 1008.31 1008.12 1007.88 1008.39 1009.50 1010.77 1012.07 1013.13 1014.48 1015.45 1016.27 1017.40 1017.84 1017.16 1016.77 1016.86 1017.73 1019.36 1018.81 1018.80 1019.05 1019.21 1019.50 1019.62 1019.79 1019.85 1020.04 1019.89 1020.04 1020.90 1021.94 1022.61 1022.60 1022.75 1022.97 1023.27 1023.18 1023.70 1024.60 1025.76 1026.92 1027.63 1027.88
1009.17 1009.20 1009.02 1008.66 1008.25 1008.17 1008.03 1007.49 1008.41 1009.48 1011.00 1012.45 1013.74 1014.77 1015.88 1016.63 1016.88 1016.60 1017.04 1017.77 1019.80 1018.98 1017.80 1018.79 1018.82 1019.04 1019.67 1020.04 1020.18 1020.00 1020.48 1020.57 1020.58 1021.72 1022.95 1023.29 1023.45 1023.52 1023.32 1023.97 1024.24 1024.59 1025.73 1027.68 1029.04 1029.12 1027.98
1008.93 1008.76 1008.70 1008.51 1008.32 1008.27 1008.50 1007.37 1007.62 1008.55 1009.76 1011.41 1012.94 1014.11 1015.01 1016.20 1016.28 1016.68 1017.29 1018.75 1018.54 1017.01 1017.61 1017.81 1018.32 1018.93 1019.78 1020.05 1020.46 1020.27 1020.65 1021.25 1020.92 1020.86 1022.67 1023.45 1024.16 1023.90 1023.72 1023.88 1024.14 1024.93 1025.65 1026.88 1028.42 1029.46 1028.56
1008.42 1008.34 1008.28 1008.36 1008.43 1008.26 1008.34 1008.16 1008.28 1007.36 1008.96 1010.33 1012.11 1013.81 1014.85 1015.81 1016.28 1016.99 1017.63 1017.62 1015.57 1016.26 1016.16 1017.21 1018.67 1019.40 1020.01 1019.96 1020.25 1020.49 1020.32 1020.68 1020.18 1020.14 1020.84 1022.66 1023.68 1024.08 1024.11 1024.25 1024.55 1025.25 1025.77 1026.33 1027.95 1029.82 1028.85
1007.85 1007.82 1008.10 1007.90 1008.10 1008.31 1008.10 1007.79 1007.04 1007.50 1007.82 1009.47 1011.66 1013.00 1013.85 1014.79 1015.86 1017.29 1017.93 1015.45 1014.83 1014.47 1015.23 1016.15 1016.70 1017.88 1019.03 1019.69 1020.22 1020.43 1019.95 1018.76 1018.76 1019.13 1019.29 1020.92 1023.60 1024.69 1024.81 1024.61 1024.93 1025.04 1025.34 1026.59 1028.00 1029.16 1028.50
1007.24 1007.33 1007.69 1007.53 1007.73 1008.07 1007.99 1007.91 1008.00 1008.02 1007.52 1008.61 1010.67 1012.59 1013.29 1014.19 1015.58 1017.88 1016.60 1015.37 1014.48 1013.85 1013.56 1014.54 1015.54 1017.26 1018.31 1019.05 1019.58 1019.87 1019.34 1018.05 1017.81 1019.05 1019.33 1020.51 1022.25 1025.62 1025.48 1024.88 1024.52 1025.30 1025.53 1026.32 1026.91 1027.40 1027.16
1006.53 1006.61 1006.73 1007.38 1007.53 1007.79 1007.55 1007.82 1007.74 1007.57 1007.75 1008.20 1009.87 1012.24 1013.18 1013.82 1016.22 1016.60 1015.36 1014.39 1013.55 1013.30 1013.39 1013.46 1014.21 1015.60 1016.99 1018.08 1018.91 1019.42 1018.62 1017.59 1016.80 1018.05 1019.66 1020.32 1022.67 1024.85 1025.20 1024.74 1024.62 1024.59 1024.86 1025.43 1026.81 1027.32 1026.54
1005.75 1006.00 1006.31 1006.52 1006.72 1006.72 1007.22 1007.81 1007.39 1007.28 1006.81 1007.11 1009.45 1011.88 1013.71 1013.33 1014.06 1014.61 1014.18 1013.60 1013.34 1012.98 1012.96 1013.29 1013.92 1014.41 1015.91 1017.01 1018.15 1018.25 1018.09 1017.74 1017.35 1017.57 1018.53 1019.75 1022.38 1024.70 1025.42 1025.44 1024.92 1024.53 1024.02 1024.60 1025.85 1026.09 1025.73
1004.72 1004.89 1005.30 1005.63 1006.03 1006.47 1006.96 1007.14 1007.16 1007.66 1007.23 1007.49 1009.25 1011.93 1013.96 1014.28 1012.43 1012.50 1012.74 1012.54 1012.50 1011.99 1012.28 1012.48 1013.20 1014.20 1015.55 1016.55 1017.13 1017.88 1018.48 1018.74 1018.23 1018.32 1018.93 1019.29 1021.64 1022.20 1022.75 1022.37 1022.55 1023.62 1023.01 1023.56 1024.57 1025.68 1023.88
1003.70 1003.96 1004.40 1004.71 1005.19 1005.69 1006.00 1006.52 1007.07 1007.26 1007.07 1007.56 1008.57 1009.47 1009.84 1012.02 1011.39 1010.11 1011.03 1011.11 1011.70 1011.21 1011.19 1011.52 1012.84 1013.01 1014.06 1016.14 1017.08 1017.62 1018.32 1019.30 1019.39 1019.43 1019.90 1020.37 1021.73 1022.09 1022.11 1021.95 1022.26 1021.87 1021.85 1022.35 1023.05 1021.90 1021.77
1002.53 1002.94 1003.32 1003.81 1004.29 1004.74 1005.24 1005.69 1006.36 1006.77 1007.37 1007.20 1007.89 1008.81 1009.59 1008.99 1009.82 1010.69 1010.60 1009.02 1008.70 1009.68 1009.37 1010.32 1010.56 1012.21 1012.94 1013.91 1014.12 1016.20 1017.13 1018.09 1018.61 1020.61 1020.82 1021.44 1022.13 1022.44 1022.76 1022.14 1021.95 1021.79 1021.21 1021.11 1021.14 1021.12 1020.29
1001.01 1001.58 1002.16 1002.63 1003.20 1003.70 1004.24 1004.74 1005.49 1006.32 1007.05 1007.63 1007.94 1008.32 1008.26 1007.85 1008.64 1009.01 1007.80 1005.67 1004.95 1008.05 1008.52 1008.07 1009.62 1011.29 1012.45 1012.59 1013.35 1013.65 1015.04 1016.49 1017.81 1019.30 1021.24 1021.85 1022.47 1023.09 1023.10 1022.41 1022.03 1021.30 1019.64 1019.11 1018.89 1018.68 1017.65
999.56 1000.10 1000.63 1001.28 1001.88 1002.46 1003.07 1003.76 1004.45 1005.40 1006.21 1007.26 1007.48 1007.60 1007.95 1007.61 1007.27 1006.43 1005.71 1005.82 1006.40 1005.74 1005.54 1007.94 1009.33 1010.53 1012.14 1012.08 1013.20 1014.69 1016.09 1017.46 1018.27 1020.19 1020.37 1021.38 1022.17 1022.59 1023.32 1022.88 1020.33 1016.02 1015.22 1015.36 1016.04 1016.07 1015.53
997.98 998.58 999.22 999.84 1000.45 1001.08 1001.74 1002.49 1003.26 1004.14 1005.16 1005.97 1006.57 1007.45 1007.43 1007.17 1006.44 1006.32 1006.39 1005.49 1006.98 1007.16 1007.99 1008.53 1009.39 1009.25 1010.72 1011.53 1013.70 1015.65 1017.05 1018.25 1019.34 1020.28 1020.93 1020.91 1021.24 1021.87 1022.21 1020.94 1017.13 1015.46 1015.29 1015.31 1015.36 1013.72 1012.69
996.31 997.03 997.73 998.41 999.13 999.83 1000.44 1001.27 1001.99 1002.85 1004.00 1005.21 1005.88 1006.56 1007.24 1007.42 1006.23 1005.71 1005.77 1006.24 1006.09 1006.77 1008.15 1009.36 1010.15 1009.85 1010.72 1011.86 1012.91 1013.37 1014.22 1015.66 1018.46 1019.82 1020.59 1020.72 1020.61 1019.81 1020.38 1018.98 1015.69 1012.58 1012.49 1012.76 1013.57 1012.03 1010.71
994.69 995.49 996.30 997.06 997.77 998.51 999.25 999.99 1000.88 1001.68 1002.79 1004.27 1005.01 1005.72 1006.68 1006.85 1006.33 1005.92 1005.62 1005.32 1005.63 1006.03 1007.12 1009.22 1010.09 1011.01 1010.61 1010.78 1011.41 1011.75 1012.09 1012.66 1014.94 1016.58 1018.88 1019.98 1019.90 1018.48 1017.93 1016.44 1012.78 1011.39 1011.81 1012.61 1013.03 1009.37 1008.93
993.68 994.27 995.11 995.92 996.64 997.37 998.03 998.88 999.70 1000.67 1001.54 1002.99 1004.08 1004.79 1005.59 1005.89 1005.50 1005.45 1005.36 1005.48 1005.14 1005.34 1005.95 1008.02 1009.89 1009.78 1010.15 1009.69 1009.78 1009.98 1009.91 1010.54 1012.11 1012.95 1014.10 1015.53 1016.74 1016.29 1016.27 1015.38 1011.36 1009.40 1011.76 1011.07 1008.67 1008.56 1008.97
992.47 993.26 994.07 994.83 995.56 996.22 996.95 997.62 998.37 999.41 1000.50 1001.88 1003.30 1003.94 1004.91 1005.82 1005.72 1005.55 1004.97 1004.74 1004.73 1005.12 1005.88 1006.54 1004.94 1006.64 1006.72 1007.94 1007.97 1008.41 1008.34 1008.49 1008.35 1010.48 1011.75 1011.86 1009.84 1010.85 1011.17 1008.70 1008.24 1007.95 1007.55 1007.78 1008.03 1008.57 1009.29
Wind_Speed
22 21 21 18 18 16 15 13 13 12 12 9 7 5 4 5 7 8 9 9 10 9 8 9 10 10 4 3 1 6 13 11 8 5 2 2 4 5 6 7 9 9 3 7 8 11 9
24 22 22 20 19 18 16 16 15 14 13 11 8 7 4 5 6 8 8 9 9 9 8 9 9 8 1 1 4 7 8 8 7 4 5 7 3 6 8 5 6 6 9 6 8 8 5
25 24 23 22 20 20 18 16 16 15 14 12 10 8 6 4 6 7 9 9 9 9 9 9 7 2 4 1 4 7 7 4 6 2 4 5 1 7 5 8 6 10 10 7 4 3 4
26 25 25 24 22 22 20 18 17 16 14 13 11 9 7 5 5 7 8 10 9 9 9 8 7 1 2 1 3 5 7 4 6 5 4 4 9 9 6 7 5 6 5 5 5 5 5
27 28 27 26 25 23 23 21 19 18 16 14 12 10 8 6 5 5 8 9 11 10 9 7 2 2 1 3 2 4 3 2 5 2 4 3 7 5 5 7 5 1 3 4 2 6 5
28 29 28 28 27 26 24 23 21 20 18 17 14 13 10 7 5 5 8 10 7 7 3 3 1 4 0 1 2 3 3 3 2 1 4 3 6 5 2 4 6 7 4 3 6 6 5
22 30 29 29 28 27 26 25 23 22 20 16 16 14 12 9 5 4 5 2 5 4 8 1 2 4 3 1 1 3 2 4 1 2 4 1 6 6 12 6 1 6 5 7 2 2 5
20 15 30 30 29 27 26 25 24 23 21 19 16 16 13 9 5 1 2 2 3 5 5 0 2 3 2 1 2 2 6 2 2 3 3 5 3 3 5 3 1 2 5 3 2 2 2
17 21 16 31 30 29 27 26 26 24 22 21 19 17 14 9 4 2 4 3 1 2 4 2 1 3 3 3 2 1 3 1 2 3 2 6 2 1 3 3 5 3 6 5 4 2 2
13 17 22 19 27 31 28 28 26 25 24 22 21 19 16 12 2 4 4 5 4 1 5 5 4 3 3 2 2 2 3 1 2 5 4 4 1 2 4 4 3 4 3 6 9 5 4
14 13 15 17 16 22 30 30 29 27 26 24 23 22 20 15 1 4 4 8 6 5 1 3 3 1 1 4 6 3 2 1 5 3 5 2 3 2 2 2 2 3 2 6 4 2 3
10 12 12 14 15 19 29 31 30 29 27 26 25 24 21 9 1 4 2 6 6 8 10 3 5 5 6 1 2 3 1 4 4 5 7 3 0 3 3 3 1 6 7 8 6 3 3
10 8 11 13 15 14 13 31 31 31 30 28 27 26 17 7 4 5 3 5 7 7 4 7 7 8 4 5 4 4 5 4 7 6 2 2 2 2 4 7 7 3 6 4 5 4 8
10 10 7 11 13 12 13 21 31 32 33 32 30 27 14 4 2 5 3 6 7 6 9 3 5 9 7 6 3 6 7 4 6 3 5 7 4 8 3 4 8 6 6 8 9 4 4
11 10 9 5 8 12 10 11 18 35 34 34 32 10 9 5 5 3 5 8 11 9 10 11 5 6 3 4 7 4 9 8 10 11 8 6 1 1 4 3 3 6 4 4 8 2 5
13 12 12 8 4 9 13 12 14 30 35 36 11 9 8 14 9 4 3 16 6 7 9 5 9 5 10 9 8 8 11 7 7 11 3 8 6 1 1 1 1 2 4 4 4 2 5
16 15 13 12 8 5 9 9 10 9 35 36 8 7 9 15 6 4 13 9 5 5 6 9 8 7 6 11 8 7 10 3 8 6 7 6 7 1 2 8 9 2 2 1 3 5 6
18 15 13 13 12 10 6 10 10 9 29 25 8 5 11 15 7 4 12 9 5 6 3 5 5 5 10 11 8 7 13 5 10 10 11 3 7 5 8 2 2 4 6 7 7 6 3
20 18 17 15 13 11 10 9 10 10 29 10 7 5 2 8 12 13 5 7 4 8 7 7 8 4 4 10 5 7 8 0 6 10 13 10 1 4 6 4 2 7 7 5 4 3 7
22 20 19 18 17 15 15 12 9 8 11 1 5 7 2 3 2 22 22 11 16 8 6 6 6 5 5 3 0 8 5 1 4 4 6 7 4 9 11 6 7 7 8 11 8 4 5
24 23 23 21 20 19 16 17 13 13 11 4 3 4 7 12 17 17 23 15 18 14 10 10 5 9 11 6 3 4 3 2 5 2 3 6 7 5 4 3 4 4 6 17 15 21 10
27 26 24 23 23 22 20 20 19 15 15 5 4 5 2 3 12 19 18 22 31 27 19 11 11 13 8 10 11 11 9 5 7 1 5 1 2 3 3 4 3 4 8 12 19 7 16
31 29 28 26 25 24 23 21 22 18 11 2 1 2 2 10 15 19 23 36 40 25 16 25 19 14 14 7 5 7 5 10 8 13 8 7 7 4 6 2 3 6 19 17 8 7 13
32 32 32 30 29 28 27 24 22 23 18 4 3 2 3 3 12 21 31 32 27 33 30 19 17 17 9 22 16 13 14 13 11 6 2 7 8 4 4 2 10 4 7 20 23 16 21
33 32 31 30 30 30 29 27 25 25 25 5 3 4 2 3 10 13 22 19 23 10 18 12 0 5 20 7 6 6 3 3 3 2 3 2 4 4 6 6 10 4 6 11 13 17 27
33 32 31 30 31 31 30 29 28 26 27 5 4 4 4 1 5 10 11 21 15 18 6 4 4 18 8 4 4 15 13 9 9 1 2 1 2 3 4 5 14 2 5 8 8 14 16
33 31 30 28 28 30 31 31 30 28 28 11 4 9 3 5 5 3 4 7 6 14 10 6 8 4 3 11 12 12 13 9 11 14 9 4 1 13 5 9 13 7 9 8 7 14 4
34 30 28 27 26 27 31 31 31 30 28 14 4 11 6 4 6 5 6 6 1 11 12 10 8 4 9 14 13 8 9 10 5 6 14 14 14 8 4 8 29 9 6 16 9 3 6
29 28 27 27 27 27 28 31 33 31 29 22 3 10 5 2 2 1 3 5 7 5 9 15 8 18 10 11 8 7 6 6 16 14 3 13 14 13 17 14 2 19 9 10 3 7 7
Wind_Direction
205 201 196 197 181 194 207 208 217 213 232 228 226 225 263 293 308 315 324 327 325 324 331 320 336 333 334 67 330 319 335 326 331 314 12 44 86 98 110 110 56 71 78 50 88 81 74
204 204 199 197 183 187 201 204 210 203 224 225 212 220 241 278 297 309 318 321 321 320 317 317 330 327 343 57 289 330 332 340 4 25 5 32 94 111 78 58 80 106 87 84 64 81 91
208 202 203 198 197 184 195 201 199 200 215 218 210 213 219 254 291 302 314 314 316 312 309 313 325 315 65 136 314 330 352 346 350 10 63 0 26 77 113 81 108 105 76 40 99 119 126
209 206 204 200 196 186 186 199 196 199 199 215 201 201 221 242 272 299 311 308 305 298 297 302 315 350 111 240 313 357 342 27 18 23 81 28 60 88 85 115 64 77 84 116 243 139 169
211 209 205 202 198 191 186 192 194 194 196 207 192 186 209 227 253 288 299 300 297 287 283 289 337 106 10 322 46 317 30 30 308 44 34 42 68 83 52 99 56 290 181 137 231 197 152
213 211 207 203 200 194 189 187 191 192 193 190 198 180 194 217 251 283 299 291 288 322 265 269 285 49 353 184 301 318 331 324 79 97 62 68 69 93 56 83 189 189 206 146 175 224 154
243 212 209 203 202 198 192 188 190 193 188 194 195 184 186 200 222 286 341 355 52 6 40 293 132 120 137 60 63 17 348 351 235 29 118 45 91 184 197 201 126 172 145 130 131 104 156
355 270 209 205 201 197 194 190 190 189 187 186 185 180 185 193 197 238 75 237 211 161 117 50 90 65 71 72 112 23 19 129 133 132 96 35 185 179 136 162 106 30 123 97 54 156 155
353 355 265 205 198 195 191 190 190 188 186 180 177 173 177 174 161 116 169 218 222 165 95 181 182 176 171 141 81 173 5 105 116 120 146 152 171 173 148 138 125 36 158 180 158 141 348
352 353 350 228 206 192 188 185 188 186 180 179 171 166 164 149 140 181 206 210 153 301 68 215 218 208 147 162 72 302 355 99 65 140 111 102 255 181 142 119 112 147 320 129 132 118 210
350 358 350 345 12 213 187 185 184 182 176 174 170 163 161 164 290 174 218 143 131 59 12 154 153 61 56 148 133 353 299 342 130 86 108 191 143 133 110 90 21 168 117 126 125 103 69
340 349 356 347 346 339 199 187 181 178 174 170 168 161 159 185 17 259 147 96 63 53 245 165 126 154 124 143 92 126 24 32 121 81 36 83 313 56 119 31 80 138 71 42 41 58 0
315 335 345 354 354 355 323 188 180 175 172 169 166 160 155 142 188 186 115 78 55 175 278 203 174 156 159 159 145 140 155 167 151 110 162 49 19 348 127 75 353 51 88 10 352 1 221
305 312 328 341 349 342 336 202 182 178 172 167 165 158 166 151 112 114 90 61 185 214 189 159 114 109 170 153 204 166 129 201 254 127 123 154 289 174 208 190 185 186 161 159 202 196 255
286 297 296 307 324 347 334 318 308 177 173 164 156 155 156 162 107 81 101 203 201 195 158 137 74 106 212 162 138 149 167 200 204 184 157 143 197 15 51 358 125 196 198 166 102 54 56
274 273 285 271 271 312 319 337 328 187 167 157 158 148 174 144 121 78 96 224 190 149 125 146 160 148 168 181 150 183 167 206 190 186 173 182 98 343 286 4 346 177 167 85 349 163 264
261 267 258 277 228 244 295 310 316 311 171 156 144 158 148 128 91 95 214 213 204 185 140 153 177 140 163 173 169 193 195 254 178 169 137 134 109 306 96 214 180 147 237 22 136 157 183
254 249 255 251 264 224 240 300 313 278 178 152 149 174 160 141 135 188 213 170 212 185 166 190 125 111 164 164 160 197 200 232 147 142 164 162 119 164 209 273 264 193 194 161 134 237 237
249 243 237 237 243 235 227 240 290 320 190 143 166 105 192 159 173 210 190 175 243 173 180 182 187 157 160 164 127 188 194 277 198 145 163 180 203 72 349 342 328 217 200 147 120 87 211
252 245 238 234 230 237 219 227 232 278 223 88 128 125 107 238 161 199 197 197 205 178 189 157 160 106 108 105 226 165 142 349 13 78 99 106 135 161 189 188 136 201 193 176 137 133 192
247 245 236 235 229 228 227 215 227 226 268 250 174 184 168 182 213 197 189 179 200 200 207 159 189 190 166 135 78 141 106 87 16 98 65 129 189 152 230 171 179 212 176 186 194 220 193
243 241 240 234 232 222 222 212 214 226 235 256 153 156 163 160 198 193 203 211 198 207 177 202 211 184 188 163 178 178 135 190 179 69 151 46 230 110 303 235 216 233 229 195 217 252 260
239 237 236 234 231 226 216 216 206 206 195 95 14 133 182 165 185 180 202 211 211 189 219 210 194 162 194 208 123 119 113 112 137 151 171 146 134 105 252 41 61 294 213 209 192 199 214
235 234 235 233 231 226 218 212 206 198 188 137 184 114 155 206 185 205 205 213 212 203 198 191 179 194 138 118 92 59 57 73 74 25 95 146 135 124 194 47 263 276 194 205 219 230 231
234 231 229 229 229 225 220 210 207 198 189 168 143 155 139 257 197 209 220 219 223 217 211 178 113 149 156 80 89 97 35 46 354 49 333 81 151 143 164 206 299 213 197 167 175 235 235
230 229 227 225 226 225 219 215 204 200 191 159 150 116 135 339 227 223 208 215 203 208 181 96 16 155 120 119 135 201 200 184 209 180 345 59 53 162 142 190 234 97 161 135 110 276 231
225 223 223 223 221 222 221 213 208 202 193 170 162 141 134 189 254 137 206 204 198 192 196 121 145 186 192 175 197 199 211 170 196 178 159 135 340 215 205 239 271 185 160 156 135 262 183
220 220 221 221 222 224 218 215 206 203 197 173 151 171 164 203 221 178 195 180 212 202 186 152 134 214 185 195 197 181 209 201 146 153 167 163 167 187 180 222 255 142 86 180 196 152 162
221 223 223 223 225 222 220 222 205 199 198 174 149 169 161 198 280 275 224 218 222 238 194 180 191 162 174 173 191 189 198 166 203 218 174 194 186 181 187 219 150 191 185 204 160 153 191